Home   Weather   Santa Clarita   Past weeks

Flag for USA Past Weather in Santa Clarita, California, USA — Yesterday and Last 2 Weeks

Now
50 °F

Light rain. Fog.


Feels Like: 47 °F
Forecast: 41 / 49 °F
Wind: 8 mph from Southeast

Location: Van Nuys Airport

Current Time: Jan 22, 2017 at 4:47:00 pm

Latest Report: Jan 22, 2017 at 3:51 pm


Visibility: 1 mi

Pressure: 29.89 "Hg

Humidity: 100%

Dew Point: 50 °F

Location of Santa ClaritaLocation

Past Weather in Santa Clarita — Graph

°F

Santa Clarita Temperature Yesterday

Maximum temperature yesterday: 59 °F (at 2:51 pm)
Minimum temperature yesterday: 43 °F (at 6:51 am)
Average temperature yesterday: 51 °F

High & Low Weather Summary for the Past Weeks

 TemperatureHumidityPressure
High74 °F (Jan 8, 12:51 pm)100% (Jan 9, 4:31 am)30.21 "Hg (Jan 9, 4:31 am)
Low41 °F (Jan 18, 5:51 am)22% (Jan 17, 1:51 pm)29.40 "Hg (Jan 20, 2:51 pm)
Average54 °F79%29.99 "Hg
* Reported Jan 7 3:51 pm — Jan 22 3:08 pm, Santa Clarita, Weather by CustomWeather, © 2017

Note: Actual official high and low records may vary slightly from our data, if they occured in-between our weather recording intervals... More about our weather records

Advertising

Santa Clarita Weather History for the Previous 24 Hours

Scroll right to see more
 ConditionsComfort  
Time TempWeatherWind HumidityBarometerVisibility
3:08 pm
Sun, Jan 22
50 °FRain. Fog.14 mph100%29.86 "Hg1 mi
2:19 pm50 °FRain. Fog.16 mph96%29.88 "Hg2 mi
1:16 pm49 °FRain. Fog.17 mph93%29.92 "Hg2 mi
11:51 am48 °FRain. Fog.16 mph93%29.99 "Hg2 mi
11:26 am48 °FRain. Fog.13 mph93%30.02 "Hg2 mi
10:51 am48 °FLight rain. Fog.13 mph93%30.04 "Hg4 mi
9:51 am49 °FRain. Fog.17 mph86%30.06 "Hg3 mi
8:51 am48 °FLight rain. Mostly cloudy.14 mph93%30.08 "Hg9 mi
7:51 am48 °FLight rain. Mostly cloudy.8 mph93%30.07 "Hg7 mi
6:51 am47 °FLight rain. Mostly cloudy.10 mph97%30.07 "Hg8 mi
6:30 am48 °FLight rain. Mostly cloudy.8 mph89%30.06 "Hg8 mi
5:51 am49 °FLight rain. Fog.9 mph93%30.06 "Hg5 mi
4:51 am49 °FLight rain. Mostly cloudy.7 mph100%30.05 "Hg7 mi
3:51 am50 °FLight rain. Mostly cloudy.6 mph93%30.06 "Hg10 mi
3:04 am50 °FLight rain. Mostly cloudy.7 mph96%30.09 "Hg8 mi
1:51 am51 °FLight rain. Fog.No wind92%30.08 "Hg6 mi
12:51 am51 °FLight rain. Mostly cloudy.6 mph89%30.08 "Hg10 mi
11:51 pm
Sat, Jan 21
52 °FOvercast.7 mph83%30.09 "Hg10 mi
10:51 pm50 °FPassing clouds.6 mph86%30.09 "Hg10 mi
9:51 pm51 °FPassing clouds.3 mph80%30.08 "Hg10 mi
8:51 pm50 °FPassing clouds.5 mph80%30.08 "Hg10 mi
7:51 pm52 °FPassing clouds.3 mph75%30.06 "Hg10 mi
6:51 pm54 °FPassing clouds.No wind67%30.02 "Hg10 mi
5:51 pm54 °FClear.3 mph64%29.98 "Hg10 mi
4:51 pm55 °FPartly sunny.8 mph64%29.96 "Hg10 mi
Weather by CustomWeather, © 2017

See weather overviewHow to use our weather pages